Location: Champseau
(45.8333°N, 1.7667°E)
Time: 04:42:43
(UTC+00:00)

Cosmos 407 Rocket - Pass Details

Date: 18 April 2021
Orbit: 743 x 787 km, 74.0° (Epoch: 10 May)

Event Time Altitude Azimuth Distance (km) Brightness Sun altitude
Exits shadow 20:53:36 29° 183° (S) 1,347 4.4 -20.4°
Maximum altitude 20:56:11 68° 108° (ESE) 808 3.3 -20.7°
Drops below altitude 10° 21:01:19 10° 26° (NNE) 2,286 6.2 -21.3°
Sets 21:03:42 0° 24° (NNE) 3,222 7.0 -21.6°
